Weather History for Imperial, CA

Change the Weather History Date:

Wednesday, June 6, 2012

  Actual Average Record
Temperature  
Mean Temperature 78 °F -  
Max Temperature 97 °F 98 °F 113 °F (2002)
Min Temperature 61 °F 67 °F 57 °F (1988)
Cooling Degree Days 14    
Growing Degree Days 28 (Base 50)    
Moisture  
Dew Point 35 °F    
Average Humidity 22    
Maximum Humidity 47    
Minimum Humidity 9    
Precipitation  
Precipitation 0.00 in - - ()
Sea Level Pressure  
Sea Level Pressure 29.69 in    
Wind  
Wind Speed 6 mph (WNW)    
Max Wind Speed 9 mph    
Max Gust Speed -    
Visibility 10 miles    
Events      
Averages and records for this station are not official NWS values.
T = Trace of Precipitation, MM = Missing Value Source: NWS Daily Summary

Daily Weather History Graph

Daily Weather History Graph

Search for Another Location

Airport:

Trip Planner

Search our weather history database for the weather conditions in past years. The results will help you decide how hot, cold, wet, or windy it might be!

Date:

Astronomy

Jun. 06, 2012 Rise Set
Actual Time 5:33 AM PDT 7:48 PM PDT
Civil Twilight 5:05 AM PDT 8:16 PM PDT
Nautical Twilight 4:30 AM PDT 8:51 PM PDT
Astronomical Twilight 3:53 AM PDT 9:29 PM PDT
Moon 10:08 PM PDT (6/6) 7:56 AM PDT (6/6)
Length of Visible Light 15h 11m
Length of Day
14h 14m
Waning Gibbous, 92% of the Moon is Illuminated
Jun 6
Waning Gibbous
Jun 11
Last Quarter
Jun 19
New
Jun 26
First Quarter
Jul 3
Full

Hourly Weather History & Observations

Time (PDT) Temp. Dew Point Humidity Pressure Visibility Wind Dir Wind Speed Gust Speed Precip Events Conditions
12:53 AM 69.1 °F 39.0 °F 33% 29.72 in 10.0 mi WNW 9.2 mph - N/A   Clear
1:53 AM 69.1 °F 33.1 °F 26% 29.71 in 10.0 mi West 8.1 mph - N/A   Clear
2:53 AM 68.0 °F 32.0 °F 26% 29.72 in 10.0 mi NW 3.5 mph - N/A   Clear
3:53 AM 64.0 °F 28.0 °F 26% 29.72 in 10.0 mi WNW 3.5 mph - N/A   Clear
4:53 AM 66.0 °F 26.1 °F 22% 29.71 in 10.0 mi West 3.5 mph - N/A   Clear
5:53 AM 61.0 °F 30.9 °F 32% 29.72 in 10.0 mi West 6.9 mph - N/A   Clear
6:53 AM 68.0 °F 30.0 °F 24% 29.74 in 10.0 mi WNW 5.8 mph - N/A   Clear
7:53 AM 73.9 °F 36.0 °F 25% 29.75 in 10.0 mi WNW 4.6 mph - N/A   Clear
8:53 AM 80.1 °F 39.0 °F 23% 29.75 in 10.0 mi NW 6.9 mph - N/A   Clear
9:53 AM 84.0 °F 36.0 °F 18% 29.74 in 10.0 mi Variable 4.6 mph - N/A   Clear
10:53 AM 87.1 °F 34.0 °F 15% 29.73 in 10.0 mi Variable 5.8 mph - N/A   Clear
11:53 AM 90.0 °F 35.1 °F 14% 29.72 in 10.0 mi North 8.1 mph - N/A   Clear
12:53 PM 91.0 °F 34.0 °F 13% 29.71 in 10.0 mi NNW 6.9 mph - N/A   Clear
1:53 PM 93.2 °F 30.2 °F 11% 29.68 in 10.0 mi Variable 3.5 mph - N/A   Clear
2:53 PM 95.0 °F 30.2 °F 10% 29.66 in 10.0 mi Variable 5.8 mph - N/A   Clear
3:53 PM 96.1 °F 28.0 °F 9% 29.65 in 10.0 mi Variable 3.5 mph - N/A   Clear
4:53 PM 95.0 °F 28.9 °F 10% 29.64 in 10.0 mi Variable 3.5 mph - N/A   Clear
5:53 PM 93.9 °F 33.1 °F 12% 29.63 in 10.0 mi WNW 4.6 mph - N/A   Clear
6:53 PM 91.9 °F 35.1 °F 13% 29.63 in 10.0 mi WSW 4.6 mph - N/A   Clear
7:53 PM 86.0 °F 41.0 °F 20% 29.64 in 10.0 mi WSW 5.8 mph - N/A   Clear
8:53 PM 79.0 °F 44.1 °F 29% 29.65 in 10.0 mi West 8.1 mph - N/A   Clear
9:53 PM 75.0 °F 48.9 °F 40% 29.67 in 10.0 mi West 5.8 mph - N/A   Clear
10:53 PM 73.9 °F 48.0 °F 40% 29.68 in 10.0 mi West 6.9 mph - N/A   Clear
11:53 PM 71.1 °F 50.0 °F 47% 29.67 in 10.0 mi WSW 8.1 mph - N/A   Clear